Location: Katzenstein
(51.7484°N, 10.2155°E)
Time: 20:19:51
(UTC+00:00)

H-2A R/B - Pass Details

Date: 17 February 2020
Orbit: 529 x 653 km, 98.3° (Epoch: 07 April)

Event Time Altitude Azimuth Distance (km) Brightness Sun altitude
Rises 03:38:56 0° 20° (NNE) 2,886 6.5 -27.1°
Reaches altitude 10° 03:41:12 10° 27° (NNE) 1,996 5.7 -26.7°
Maximum altitude 03:45:21 42° 99° (E) 901 3.7 -26.1°
Enters shadow 03:48:32 16° 165° (SSE) 1,646 4.7 -25.6°
